Location: Boiro
(42.6475°N, 8.8834°W)
Time: 04:05:05
(UTC+01:00)

Vanguard 1 Rocket - Pass Details

Date: 11 December 2021
Orbit: 651 x 4224 km, 34.3° (Epoch: 21 January)

Event Time Altitude Azimuth Distance (km) Brightness Sun altitude
Rises 08:25:30 0° 277° (W) 5,787 - -5.7°
Exits shadow 08:26:17 - 275° (W) 5,654 10.8 -5.6°
Reaches altitude 10° 08:29:13 10° 268° (W) 5,215 10.7 -5.1°
Maximum altitude 08:43:25 35° 211° (SSW) 4,790 11.1 -2.8°
Drops below altitude 10° 09:04:02 10° 157° (SSE) 7,409 13.1 0.5°
Sets 09:10:57 0° 149° (SSE) 8,431 13.7 1.5°
